EW9138 Weather Reports


Display with metric or nautical units.
time (UTC)temp
F
wind
direction
speed
MPH
gust
MPH
rain 1hr
in
rain 24hr
in
rain mn
in
humidity
%
barometer
mb
20260507163258 63 200 2.0 5.0 0.00 0.03 0.03 64 1014.0
20260507162757 63 217 2.0 5.0 0.00 0.03 0.03 62 1013.9
20260507162257 63 182 2.0 5.0 0.00 0.03 0.03 66 1013.9
20260507161757 63 174 2.0 5.0 0.00 0.03 0.03 66 1013.9
20260507161258 62 175 2.0 5.0 0.00 0.03 0.03 68 1013.8
20260507160758 62 242 2.0 5.0 0.00 0.03 0.03 70 1013.8
20260507155758 62 173 2.0 6.0 0.00 0.03 0.03 71 1013.8
20260507155257 62 183 2.0 6.0 0.00 0.03 0.03 72 1013.8
20260507154757 62 204 2.0 5.0 0.00 0.03 0.03 70 1013.8
20260507154257 62 214 2.0 5.0 0.00 0.03 0.03 70 1013.7
20260507153757 62 238 2.0 5.0 0.00 0.03 0.03 73 1013.7
20260507152758 62 220 2.0 5.0 0.00 0.03 0.03 71 1013.7
20260507152257 62 200 2.0 5.0 0.00 0.03 0.03 70 1013.7
20260507151757 62 206 2.0 5.0 0.00 0.03 0.03 70 1013.7
20260507151257 62 231 1.0 5.0 0.00 0.03 0.03 76 1013.8
20260507150757 61 231 1.0 5.0 0.00 0.03 0.03 72 1013.8
20260507150258 61 220 2.0 5.0 0.00 0.03 0.03 73 1013.8
20260507145758 61 219 2.0 5.0 0.00 0.03 0.03 74 1014.0
20260507145258 60 224 2.0 3.0 0.00 0.03 0.03 79 1014.0
20260507144257 59 162 2.0 5.0 0.00 0.03 0.03 84 1014.2
20260507143757 58 205 2.0 5.0 0.00 0.03 0.03 83 1014.2
20260507142758 58 240 2.0 8.0 0.01 0.03 0.03 86 1014.2
20260507142258 58 199 2.0 8.0 0.01 0.03 0.03 88 1014.2
20260507141758 57 175 2.0 7.0 0.03 0.03 0.03 89 1014.2
20260507140757 57 163 3.0 8.0 0.03 0.03 0.03 91 1014.3
20260507135258 56 195 2.0 3.0 0.03 0.03 0.03 93 1014.3
20260507134758 56 232 2.0 5.0 0.03 0.03 0.03 91 1014.3
20260507134258 55 236 2.0 8.0 0.03 0.03 0.03 90 1014.6
20260507133758 56 248 2.0 8.0 0.03 0.03 0.03 89 1014.6
20260507133257 56 269 1.0 6.0 0.03 0.03 0.03 89 1014.6
20260507132758 57 217 1.0 3.0 0.02 0.02 0.02 89 1015.3
20260507132257 57 308 1.0 3.0 0.02 0.03 0.02 88 1015.3
20260507131757 57 214 1.0 3.0 0.00 0.01 0.00 86 1015.3
20260507131258 57 342 2.0 5.0 0.00 0.01 0.00 87 1015.1
20260507130758 57 173 2.0 5.0 0.00 0.02 0.00 86 1015.1
20260507130258 57 176 2.0 5.0 0.00 0.02 0.00 85 1015.1
20260507125757 58 205 2.0 5.0 0.00 0.03 0.00 85 1014.8
20260507125258 58 211 1.0 5.0 0.00 0.05 0.00 84 1014.8
20260507124758 58 200 1.0 5.0 0.00 0.07 0.00 83 1014.8
20260507124258 58 177 1.0 3.0 0.00 0.07 0.00 82 1014.3
20260507123758 58 177 1.0 3.0 0.00 0.07 0.00 83 1014.3
20260507122758 58 53 1.0 5.0 0.00 0.07 0.00 85 1014.2
20260507122258 58 32 2.0 7.0 0.00 0.08 0.00 83 1014.2
20260507121757 58 281 2.0 7.0 0.00 0.09 0.00 81 1014.2
20260507121258 59 155 1.0 7.0 0.00 0.09 0.00 83 1014.2
20260507120758 59 178 1.0 2.0 0.00 0.09 0.00 83 1014.2
20260507120258 59 252 2.0 5.0 0.00 0.09 0.00 83 1014.2
20260507115258 60 281 2.0 3.0 0.00 0.09 0.00 84 1014.1
20260507114758 60 332 2.0 6.0 0.00 0.09 0.00 82 1014.1
20260507114257 60 15 1.0 6.0 0.00 0.09 0.00 81 1013.9
20260507113259 61 307 1.0 3.0 0.00 0.09 0.00 76 1013.9
20260507112257 62 273 2.0 2.0 0.00 0.09 0.00 76 1013.8
20260507111758 62 155 2.0 6.0 0.00 0.09 0.00 77 1013.8
20260507110758 63 318 2.0 6.0 0.00 0.10 0.00 75 1013.4
20260507110258 63 231 2.0 5.0 0.00 0.10 0.00 77 1013.4
20260507105758 63 284 2.0 5.0 0.00 0.11 0.00 76 1013.6
20260507105258 64 181 2.0 5.0 0.00 0.11 0.00 71 1013.6
20260507104258 64 278 2.0 5.0 0.00 0.11 0.00 69 1013.7
20260507103758 64 175 2.0 5.0 0.00 0.11 0.00 70 1013.7
20260507103258 64 235 2.0 5.0 0.00 0.11 0.00 70 1013.7
20260507102758 64 222 2.0 5.0 0.00 0.11 0.00 73 1013.9
20260507102258 63 302 2.0 5.0 0.00 0.11 0.00 70 1013.9
20260507101758 63 181 2.0 5.0 0.00 0.11 0.00 71 1013.9
20260507101258 62 200 2.0 5.0 0.00 0.11 0.00 74 1014.0
20260507100758 62 177 2.0 6.0 0.00 0.11 0.00 73 1014.0
20260507100300 62 325 2.0 6.0 0.00 0.11 0.00 73 1014.0
20260507095758 61 231 2.0 6.0 0.00 0.11 0.00 74 1014.1
20260507094758 61 171 2.0 6.0 0.00 0.11 0.00 77 1014.1
20260507094258 60 168 2.0 6.0 0.00 0.11 0.00 76 1014.1
20260507093758 60 183 2.0 6.0 0.00 0.11 0.00 76 1014.1
20260507092758 60 177 2.0 6.0 0.00 0.11 0.00 78 1014.1
20260507092258 60 177 2.0 5.0 0.00 0.11 0.00 79 1014.1
20260507091758 60 187 2.0 5.0 0.00 0.11 0.00 78 1014.1
20260507091258 60 321 2.0 5.0 0.00 0.11 0.00 79 1014.2
20260507090758 59 120 2.0 5.0 0.00 0.11 0.00 82 1014.2
20260507085759 59 191 2.0 5.0 0.00 0.11 0.00 81 1014.2
20260507084758 59 34 0.0 2.0 0.00 0.11 0.00 82 1014.2
20260507084258 58 275 2.0 2.0 0.00 0.11 0.00 82 1014.3
20260507083258 57 241 2.0 5.0 0.00 0.11 0.00 84 1014.3
20260507082758 56 341 2.0 5.0 0.00 0.11 0.00 84 1014.3
20260507082258 56 187 2.0 3.0 0.00 0.11 0.00 85 1014.3
20260507081758 56 290 2.0 5.0 0.00 0.11 0.00 86 1014.3
20260507081258 55 266 2.0 5.0 0.00 0.13 0.00 86 1014.3
20260507080759 55 322 2.0 5.0 0.00 0.13 0.00 86 1014.3
20260507080258 54 273 2.0 3.0 0.00 0.14 0.00 87 1014.3
20260507075258 53 245 1.0 3.0 0.00 0.15 0.00 88 1014.2
20260507074758 53 268 1.0 3.0 0.00 0.15 0.00 89 1014.2
20260507074258 53 283 0.0 3.0 0.00 0.16 0.00 90 1014.2
20260507073759 53 241 0.0 2.0 0.00 0.17 0.00 92 1014.2
20260507072758 53 263 0.0 2.0 0.00 0.18 0.00 94 1014.2
20260507072259 53 263 0.0 2.0 0.00 0.18 0.00 94 1014.2
20260507071803 53 263 0.0 2.0 0.00 0.18 0.00 94 1014.2
20260507071259 53 263 0.0 2.0 0.00 0.19 0.00 94 1014.1
20260507070758 52 263 0.0 2.0 0.00 0.20 0.00 94 1014.1
20260507070258 52 263 0.0 2.0 0.00 0.21 0.00 94 1014.1
20260507065258 52 262 1.0 3.0 0.00 0.25 0.00 94 1014.2
20260507064758 52 262 1.0 3.0 0.00 0.26 0.00 94 1014.2
20260507064259 52 200 0.0 3.0 0.00 0.27 0.00 94 1014.3
20260507063759 52 242 0.0 2.0 0.00 0.28 0.00 94 1014.3
20260507063259 52 186 0.0 2.0 0.00 0.29 0.00 94 1014.3
20260507062758 52 186 0.0 2.0 0.00 0.31 0.00 94 1014.3
20260507062259 52 186 0.0 2.0 0.00 0.32 0.00 94 1014.3
20260507061759 52 184 0.0 2.0 0.00 0.34 0.00 94 1014.3
20260507061258 52 181 0.0 2.0 0.00 0.34 0.00 94 1014.2
20260507060758 52 182 0.0 2.0 0.00 0.35 0.00 94 1014.2
20260507060259 52 181 0.0 2.0 0.00 0.37 0.00 94 1014.2
20260507055759 52 177 0.0 2.0 0.00 0.37 0.00 94 1014.1
20260507055258 52 187 0.0 2.0 0.00 0.38 0.00 94 1014.1
20260507054758 52 234 0.0 2.0 0.00 0.39 0.00 94 1014.1
20260507054259 52 234 2.0 2.0 0.00 0.39 0.00 94 1014.0
20260507053758 52 234 2.0 5.0 0.00 0.40 0.00 93 1014.0
20260507053259 52 234 1.0 5.0 0.00 0.40 0.00 93 1014.0
20260507052758 51 281 1.0 3.0 0.00 0.42 0.00 92 1013.9
20260507051759 51 283 0.0 2.0 0.00 0.42 0.00 93 1013.9
20260507051259 51 283 0.0 3.0 0.00 0.42 0.00 93 1013.8
20260507050300 51 1 1.0 2.0 0.00 0.42 0.00 93 1013.8
20260507045759 51 1 1.0 2.0 0.00 0.42 0.00 93 1013.7
20260507045258 51 354 2.0 2.0 0.00 0.42 0.00 93 1013.7
20260507044758 51 286 2.0 5.0 0.00 0.42 0.00 93 1013.7
20260507044258 51 286 2.0 5.0 0.00 0.42 0.00 93 1013.5
20260507043759 51 264 2.0 5.0 0.00 0.42 0.00 92 1013.5
20260507043258 51 291 2.0 5.0 0.00 0.42 0.00 92 1013.5
20260507042758 51 272 2.0 5.0 0.00 0.42 0.00 92 1013.3
20260507041758 51 285 2.0 6.0 0.00 0.42 0.00 92 1013.3
20260507041259 51 281 1.0 6.0 0.00 0.42 0.00 92 1013.3
20260507040759 51 284 1.0 6.0 0.00 0.42 0.00 92 1013.3
20260507040259 50 357 2.0 6.0 0.00 0.42 0.00 93 1013.3
20260507035759 50 251 2.0 6.0 0.00 0.42 0.00 92 1013.3
20260507035259 50 308 2.0 5.0 0.00 0.42 0.00 93 1013.3
20260507034758 50 281 2.0 6.0 0.00 0.42 0.00 94 1013.3
20260507034259 50 305 2.0 6.0 0.00 0.42 0.00 94 1013.2
20260507033759 50 305 2.0 6.0 0.00 0.42 0.00 94 1013.2
20260507033300 50 274 2.0 5.0 0.00 0.42 0.00 94 1013.2
20260507032758 50 57 2.0 5.0 0.00 0.42 0.00 94 1013.0
20260507032259 50 276 2.0 5.0 0.00 0.42 0.00 95 1013.0
20260507031758 50 351 2.0 3.0 0.00 0.42 0.00 95 1013.0
20260507031259 50 4 2.0 5.0 0.00 0.42 0.00 95 1012.9
20260507025758 50 323 0.0 3.0 0.00 0.42 0.00 95 1012.8
20260507025259 50 282 0.0 2.0 0.00 0.42 0.00 95 1012.8
20260507024759 51 282 0.0 2.0 0.00 0.42 0.00 95 1012.8
20260507024300 51 282 0.0 2.0 0.00 0.42 0.00 95 1013.1
20260507023759 51 296 0.0 0.0 0.00 0.42 0.00 95 1013.1
20260507022759 51 281 0.0 2.0 0.00 0.42 0.00 95 1013.2
20260507022300 51 281 0.0 3.0 0.00 0.42 0.00 95 1013.2
20260507021759 51 281 0.0 3.0 0.00 0.42 0.00 95 1013.2
20260507021258 51 32 0.0 3.0 0.00 0.42 0.00 95 1013.2
20260507020759 51 68 0.0 2.0 0.00 0.42 0.00 95 1013.2
20260507015759 51 68 0.0 2.0 0.00 0.42 0.00 95 1013.1
20260507014800 51 69 1.0 5.0 0.00 0.42 0.00 95 1013.1
20260507014259 51 69 0.0 5.0 0.00 0.42 0.00 95 1013.0
20260507013259 51 28 0.0 1.0 0.00 0.42 0.00 95 1013.0
20260507012759 51 28 0.0 2.0 0.00 0.42 0.00 95 1012.9
20260507011759 52 28 0.0 2.0 0.00 0.42 0.00 95 1012.9
20260507010759 52 51 0.0 2.0 0.00 0.42 0.00 95 1012.9
20260507010259 52 51 0.0 2.0 0.00 0.42 0.00 95 1012.9
20260507005800 52 52 0.0 2.0 0.00 0.42 0.00 96 1012.9
20260507004759 52 52 1.0 2.0 0.00 0.42 0.00 95 1012.9
20260507004259 52 52 0.0 3.0 0.00 0.42 0.00 95 1012.8
20260507003758 52 52 0.0 3.0 0.00 0.42 0.00 96 1012.8
20260507003259 52 274 1.0 3.0 0.00 0.42 0.00 96 1012.8
20260507002759 52 274 1.0 3.0 0.00 0.42 0.00 96 1012.9
20260507001800 52 311 1.0 3.0 0.00 0.42 0.00 96 1012.9
20260507000759 52 339 1.0 5.0 0.00 0.42 0.00 96 1012.9
20260507000259 52 250 0.0 3.0 0.00 0.42 0.00 95 1012.9
20260506235759 52 223 0.0 2.0 0.00 0.42 0.00 95 1012.8
20260506235259 52 223 0.0 2.0 0.00 0.42 0.00 95 1012.8
20260506234800 52 223 0.0 2.0 0.00 0.42 0.00 95 1012.8
20260506234300 52 223 1.0 3.0 0.00 0.42 0.00 95 1012.8
20260506233259 53 282 1.0 2.0 0.00 0.42 0.00 95 1012.8
20260506232759 53 294 1.0 2.0 0.00 0.42 0.00 95 1012.8
20260506232259 53 294 1.0 2.0 0.00 0.42 0.00 95 1012.8
20260506231759 53 240 1.0 3.0 0.00 0.42 0.00 95 1012.8
20260506231259 53 240 0.0 3.0 0.00 0.42 0.00 95 1012.8
20260506230259 53 159 0.0 2.0 0.00 0.42 0.00 95 1012.8
20260506225759 53 158 0.0 2.0 0.00 0.42 0.00 95 1012.8
20260506225259 53 158 1.0 2.0 0.00 0.42 0.00 95 1012.8
20260506224800 53 159 1.0 2.0 0.00 0.42 0.00 95 1012.8
20260506224300 53 159 0.0 2.0 0.00 0.42 0.00 95 1012.9
20260506223759 53 295 0.0 2.0 0.00 0.42 0.00 95 1012.9
20260506223259 53 318 1.0 3.0 0.00 0.42 0.00 95 1012.9
20260506221759 53 274 0.0 0.0 0.00 0.42 0.00 95 1012.8
20260506221259 53 283 2.0 3.0 0.00 0.42 0.00 95 1012.7
20260506220844 53 283 2.0 5.0 0.00 0.42 0.00 95 1012.7
20260506220301 53 283 2.0 5.0 0.00 0.42 0.00 95 1012.7
20260506215800 54 296 2.0 3.0 0.00 0.42 0.42 95 1012.7
20260506215259 54 46 2.0 3.0 0.00 0.42 0.42 95 1012.7
20260506214759 54 60 2.0 5.0 0.00 0.42 0.42 95 1012.7
20260506214259 54 283 0.0 5.0 0.00 0.42 0.42 95 1012.7
20260506213759 54 24 0.0 3.0 0.00 0.42 0.42 95 1012.7
20260506213300 54 161 1.0 3.0 0.00 0.42 0.42 95 1012.7
20260506212759 54 59 1.0 3.0 0.00 0.42 0.42 95 1012.9
20260506212259 54 281 0.0 3.0 0.00 0.42 0.42 95 1012.9
20260506211759 54 182 0.0 3.0 0.00 0.42 0.42 95 1012.9
20260506211259 54 283 0.0 0.0 0.00 0.42 0.42 95 1012.6
20260506210800 54 281 0.0 0.0 0.00 0.42 0.42 95 1012.6
20260506210259 54 281 1.0 3.0 0.00 0.42 0.42 95 1012.6
20260506205759 54 281 1.0 3.0 0.00 0.42 0.42 95 1012.7
20260506205300 54 119 0.0 2.0 0.00 0.42 0.42 95 1012.7
20260506204759 55 261 0.0 2.0 0.00 0.42 0.42 95 1012.7
20260506204259 54 150 2.0 5.0 0.00 0.42 0.42 95 1012.5
20260506203759 55 148 2.0 5.0 0.00 0.42 0.42 95 1012.5
20260506203300 55 268 0.0 5.0 0.00 0.42 0.42 95 1012.5
20260506202759 55 0 0.0 2.0 0.00 0.42 0.42 95 1012.5
20260506202259 54 279 0.0 2.0 0.00 0.42 0.42 95 1012.5
20260506201801 54 340 0.0 0.0 0.00 0.42 0.42 95 1012.5
20260506201259 55 340 1.0 0.0 0.00 0.42 0.42 95 1012.5
20260506200759 54 340 1.0 2.0 0.00 0.42 0.42 95 1012.5
20260506200259 54 268 2.0 5.0 0.00 0.42 0.42 95 1012.5
20260506195759 54 268 2.0 5.0 0.00 0.42 0.42 95 1012.4
20260506195300 54 253 0.0 5.0 0.00 0.42 0.42 95 1012.4
20260506194759 54 279 0.0 5.0 0.00 0.42 0.42 95 1012.4
20260506194259 54 66 0.0 0.0 0.00 0.42 0.42 94 1012.2
20260506193759 54 66 0.0 0.0 0.00 0.42 0.42 94 1012.2
20260506193259 55 66 0.0 0.0 0.00 0.42 0.42 94 1012.2
20260506192759 55 66 0.0 0.0 0.00 0.42 0.42 94 1011.9
20260506192300 55 286 0.0 0.0 0.00 0.42 0.42 94 1011.9
20260506191300 55 287 0.0 0.0 0.00 0.42 0.42 94 1012.0
20260506190759 55 287 0.0 0.0 0.00 0.42 0.42 94 1012.0
20260506190259 55 287 0.0 0.0 0.00 0.42 0.42 94 1012.0
20260506185759 55 287 0.0 0.0 0.00 0.42 0.42 94 1011.9
20260506185300 56 287 0.0 0.0 0.00 0.42 0.42 94 1011.9
20260506184759 56 287 0.0 0.0 0.00 0.42 0.42 94 1011.9
20260506184300 56 287 0.0 0.0 0.00 0.42 0.42 94 1011.8
20260506183800 56 287 0.0 0.0 0.00 0.42 0.42 94 1011.8
20260506182800 56 287 0.0 0.0 0.00 0.42 0.42 94 1011.6
20260506182300 56 287 0.0 0.0 0.00 0.42 0.42 94 1011.6
20260506181800 56 287 0.0 0.0 0.00 0.42 0.42 94 1011.6
20260506181300 56 287 0.0 0.0 0.00 0.42 0.42 94 1011.4
20260506180300 56 287 0.0 0.0 0.00 0.42 0.42 93 1011.4
20260506175759 56 3 0.0 0.0 0.00 0.42 0.42 93 1011.4
20260506175300 56 2 0.0 0.0 0.00 0.43 0.42 93 1011.4
20260506174800 56 3 0.0 0.0 0.00 0.43 0.42 93 1011.4
20260506174300 57 5 0.0 0.0 0.00 0.43 0.42 94 1011.3
20260506173300 57 278 0.0 0.0 0.00 0.44 0.42 94 1011.3
20260506172759 57 358 0.0 1.0 0.00 0.44 0.42 94 1011.0
20260506172259 57 0 0.0 1.0 0.00 0.44 0.42 94 1011.0
20260506171759 57 272 0.0 0.0 0.00 0.44 0.42 94 1011.0
20260506171300 57 254 0.0 0.0 0.00 0.45 0.42 94 1010.9
20260506170800 57 254 0.0 0.0 0.00 0.45 0.42 94 1010.9
20260506170259 57 254 0.0 0.0 0.00 0.45 0.42 94 1010.9
20260506165759 57 254 0.0 0.0 0.00 0.45 0.42 94 1010.8
20260506165259 57 254 0.0 0.0 0.00 0.45 0.42 94 1010.8
20260506164800 57 279 0.0 0.0 0.00 0.45 0.42 94 1010.8
20260506164259 57 281 0.0 0.0 0.00 0.45 0.42 94 1010.7